Regional Weather Roundup
Issued by NWS Kansas City/Pleasant Hill, MO

Home | Current Version | Previous Version | Graphics & Text | Print | Product List | Glossary Off
Versions: 1 2 3 4 5 6 7 8 9 10 11 12 13 14 15 16 17 18 19 20 21 22 23 24 25 26 27 28 29 30 31 32 33 34 35 36 37 38 39 40 41 42 43 44 45 46 47 48 49 50

564
ASUS43 KEAX 260610
RWREAX

WEATHER ROUNDUP FOR EASTERN KANSAS AND NORTHWEST MISSOURI
NATIONAL WEATHER SERVICE KANSAS CITY/PLEASANT HILL MO
100 AM CDT TUE SEP 26 2017

KSZ040-057-103>105-MOZ028-029-037-043-260700-
...KANSAS CITY METROPOLITAN AREA...

CITY           SKY/WX    TMP DP  RH WIND       PRES   REMARKS
K.C. INTL      CLOUDY    66  64  93 NE8       29.94F
6HR MIN TEMP:  66; 6HR MAX TEMP:  75; 6HR PCP:  0.01;

K.C. DOWNTOWN  CLOUDY    70  64  81 NE5       29.93F
6HR MIN TEMP:  70; 6HR MAX TEMP:  85;

LEES SUMMIT    CLOUDY    69  64  84 N7        29.95F
6HR MIN TEMP:  69; 6HR MAX TEMP:  81;

OLATHE - IXD   CLOUDY    66  64  93 N5        29.95S
6HR MIN TEMP:  66; 6HR MAX TEMP:  77; 6HR PCP: TRACE;

OLATHE - OJC   CLOUDY    67  63  87 N5        29.94S
6HR MIN TEMP:  67; 6HR MAX TEMP:  77;

LAWRENCE       CLOUDY    66  66 100 SE6       29.93F

$$

MOZ001>008-011>017-020>025-030>033-038>040-044>046-053-054-260700-
...NORTHERN AND CENTRAL MISSOURI...

CITY           SKY/WX    TMP DP  RH WIND       PRES   REMARKS
ST. JOSEPH     LGT RAIN  66  66 100 CALM      29.93F
6HR MIN TEMP:  65; 6HR MAX TEMP:  70; 6HR PCP:  0.43;

MOSBY          CLOUDY    68  63  83 CALM      29.93F
WARRENSBURG    CLOUDY    68  63  83 NW6       29.93S
WHITEMAN AFB   PTCLDY    72  72 100 NW10      29.92R
6HR MIN TEMP:  70; 6HR MAX TEMP:  80;

CLINTON        CLOUDY    72  66  83 W5        29.93R
SEDALIA        CLOUDY    72  66  81 S8        29.92F
6HR MIN TEMP:  71; 6HR MAX TEMP:  81;

WARSAW         NOT AVBL
CHILLICOTHE      N/A     70  67  90 VRB7G17   29.95R
6HR MIN TEMP:  70; 6HR MAX TEMP:  81;

KIRKSVILLE     CLOUDY    69  65  86 CALM      29.93F
6HR MIN TEMP:  68; 6HR MAX TEMP:  78;


$$

MOZ041-047>049-056>058-063>065-088>090-097-260700-
...EASTERN AND SOUTHERN MISSOURI...

CITY           SKY/WX    TMP DP  RH WIND       PRES   REMARKS
ST. LOUIS INTL CLEAR     77  62  59 S5        29.95S
6HR MIN TEMP:  77; 6HR MAX TEMP:  87;

SPIRIT OF STL  CLEAR     67  65  93 CALM      29.94S
COLUMBIA       PTCLDY    72  64  76 S8        29.94S
JEFFERSON CITY PTCLDY    70  64  81 SE5       29.93S
ROLLA          CLEAR     71  62  73 S8        29.97F
OSAGE BEACH    CLOUDY    70  63  78 S3        29.95F
SPRINGFIELD    CLEAR     70  63  78 SE7       29.94F
BRANSON        CLEAR     72  63  73 S3        29.97F
JOPLIN         CLOUDY    72  66  81 CALM      29.93R
WEST PLAINS    CLEAR     65  61  87 CALM      29.99S

$$

IAZ060-094-KSZ022-034>040-054-083-096-NEZ052-066-093-260700-
...KANSAS...SOUTHEAST NEBRASKA AND IOWA...

CITY           SKY/WX    TMP DP  RH WIND       PRES   REMARKS
TOPEKA         LGT RAIN  67  67 100 S3        29.94S
6HR MIN TEMP:  66; 6HR MAX TEMP:  71; 6HR PCP:  0.55;

MANHATTAN      CLOUDY    66  65  96 CALM      29.96R
EMPORIA        CLOUDY    65  64  97 SW5       29.96R
CHANUTE        CLOUDY    70  64  81 NE6       29.94F
WICHITA        CLOUDY    65  64  97 N3        29.97R
OMAHA          LGT RAIN  59  56  89 NW6       29.97R
LINCOLN        CLOUDY    57  55  93 N9        30.00S
FALLS CITY     CLOUDY    65  65 100 E5        29.92F
LAMONI         LGT RAIN  67  67 100 W5        29.96F FOG
DES MOINES     LGT RAIN  67  66  97 W7        29.94F FOG

$$





USA.gov is the U.S. government's official web portal to all federal, state and local government web resources and services.